User: anonymous   Login
Location: Unspecified
(0.0000°N, 0.0000°E)
Time: 23:44:41
(UTC+02:00)
Language:

Landsat 4 - Orbit

View from above orbital plane
View from above orbital plane
View from above satellite
View from above satellite

Ground track
Ground track

The orbit data is extracted from the following two-line orbital elements,

1 13367U 82072A   18115.51957826  .00000626  00000-0  36378-4 0  9993
2 13367  98.2630 310.7001 0012287 213.9351 173.0461 15.16325962932350
Epoch (UTC): 25 April 2018 12:28:11
Eccentricity: 0.0012287
inclination: 98.2630°
perigee height: 508 km
apogee height: 525 km
right ascension of ascending node: 310.7001°
argument of perigee: 213.9351°
revolutions per day: 15.16325962
mean anomaly at epoch: 173.0461°
orbit number at epoch: 93235

The dashed part of the orbit path shows where the satellite is in the earth's shadow,  

DLR